Meteopurmerend
purmerend
Purmerend - Baaienwijk



My webcam  My webcam


waarschuwing voor Onweer Meer informatie blitzortung!


Regen radar Meer informatie rain snow radar


Bezoek onze andere website:

CandyAppleRed WebdesignWebdesign Purmerend Candy Apple Red

MeteopurmerendBlog

Template documentation
and downloads



Onweer van: 19-06-2019 10:00 tot: 23:00 waarschuwing voor: Onweer niveau: Geel info button
Enkele onweersbuien, mogelijk met hagel en windstoten tot ca. 75 km/uur.Verkeer en buitenactiviteiten kunnen hinder ondervinden.Mijd open water en open gebied, schuil niet onder bomen.Volg weerberichten en waarschuwingen.

15 daagse weersverwachting Savonlinna (FI)

  • Overzicht
  • Per uur
  • 15 dagen
  • Extra
  • Vergelijk
  • Kaarten
  • Dagkaart
  • Meer »
  • Info
  • Statistieken
  • Directe link
    Temp 6h Neerslag Wind  
 03:19     22:56    Daglengte: 19:37 Vandaag
15:00
23°
 
7
21:00
20°
4.4 mm
4
 03:19     22:56    Daglengte: 19:37 Morgen
03:00
17°
 
3
09:00
19°
 
2
15:00
23°
 
3
21:00
22°
 
3
 03:19     22:56    Daglengte: 19:37 Vrijdag 21 Jun
03:00
18°
 
3
09:00
23°
 
4
15:00
27°
 
5
21:00
24°
 
5
 03:20     22:57    Daglengte: 19:37 Zaterdag 22 Jun
03:00
19°
2.4 mm
4
09:00
19°
 
4
Locatie info
Region: Etelä-Savo
Latitude: 61.8684°N
Longitude: 28.8677°E
75 masl
Postcode: 57100
Temp/Neerslag /Baro Onweer/Dauwpunt
    Temp Baro 1h Neerslag Dauwpunt Wind UV Bewolking  
 03:19     22:56    Daglengte: 19:37 Vandaag
15:00
23°
1010.8 hPa
47%
13.0°
7
Windvlaag: 10 m/s
25%
16:00
23°
1010.6 hPa
82%
12.6°
7
Windvlaag: 10.2 m/s
61%
17:00
21°
1011.2 hPa 1.4 mm
82%
15.3°
5
Windvlaag: 15 m/s
50%
18:00
20°
1010.7 hPa 0.8 mm
82%
15.5°
4
Windvlaag: 5.9 m/s
41%
19:00
21°
1010.7 hPa
74%
15.0°
4
Windvlaag: 3.3 m/s
64%
20:00
20°
1010.6 hPa 2.2 mm
81%
16.1°
4
Windvlaag: 6.5 m/s
59%
21:00
20°
1010.7 hPa
27%
16.2°
4
Windvlaag: 5.5 m/s
62%
22:00
19°
1010.8 hPa
16%
16.3°
3
Windvlaag: 7.2 m/s
47%
23:00
19°
1010.9 hPa
14%
16.2°
3
Windvlaag: 4.9 m/s
54%
 03:19     22:56    Daglengte: 19:37 Morgen
00:00
18°
1011.1 hPa
14%
16.3°
3
Windvlaag: 4.3 m/s
67%
01:00
18°
1011.3 hPa
14%
16.1°
3
Windvlaag: 4.1 m/s
69%
02:00
18°
1011.7 hPa
19%
15.8°
3
Windvlaag: 5.4 m/s
58%
03:00
17°
1011.8 hPa
29%
15.5°
3
Windvlaag: 5.2 m/s
57%
04:00
17°
1012.0 hPa
29%
15.4°
2
Windvlaag: 4.9 m/s
15%
05:00
17°
1012.2 hPa
26%
15.4°
2
Windvlaag: 4 m/s
21%
06:00
17°
1012.3 hPa
23%
15.4°
2
Windvlaag: 3.4 m/s
33%
07:00
18°
1012.4 hPa
21%
15.1°
2
Windvlaag: 3.4 m/s
36%
08:00
19°
1012.5 hPa
15%
14.7°
2
Windvlaag: 3.1 m/s
37%
09:00
19°
1012.6 hPa
14%
14.6°
2
Windvlaag: 3.3 m/s
29%
10:00
20°
1012.7 hPa
61%
14.3°
2
Windvlaag: 3.3 m/s
37%
11:00
21°
1012.8 hPa
65%
14.3°
2
Windvlaag: 4.2 m/s
57%
12:00
21°
1012.8 hPa
67%
14.4°
2
Windvlaag: 4.5 m/s
64%
13:00
22°
1012.9 hPa
67%
14.9°
3
Windvlaag: 4.5 m/s
18%
14:00
23°
1012.8 hPa
42%
14.8°
3
Windvlaag: 4.6 m/s
20%
15:00
23°
1012.6 hPa
72%
13.8°
3
Windvlaag: 4.7 m/s
30%
16:00
24°
1012.3 hPa
40%
13.7°
2
Windvlaag: 4.3 m/s
9%
17:00
24°
1012.0 hPa
79%
13.5°
2
Windvlaag: 3.8 m/s
15%
18:00
24°
1011.6 hPa
81%
13.0°
2
Windvlaag: 3 m/s
17%
19:00
24°
1011.3 hPa
77%
12.6°
3
Windvlaag: 4.4 m/s
12%
20:00
23°
1011.0 hPa
24%
12.8°
2
Windvlaag: 3.7 m/s
31%
21:00
22°
1011.1 hPa
15%
13.6°
3
Windvlaag: 5.3 m/s
15%
22:00
21°
1011.3 hPa
14%
14.2°
3
Windvlaag: 6.3 m/s
4%
23:00
20°
1011.3 hPa
14%
15.1°
3
Windvlaag: 5.8 m/s
6%
 03:19     22:56    Daglengte: 19:37 Vrijdag 21 Jun
00:00
19°
1011.2 hPa
14%
14.5°
3
Windvlaag: 5.8 m/s
17%
01:00
19°
1011.3 hPa
15%
14.6°
3
Windvlaag: 5.6 m/s
6%
02:00
18°
1011.2 hPa
25%
14.9°
3
Windvlaag: 5 m/s
21%
03:00
18°
1011.0 hPa
22%
14.6°
3
Windvlaag: 4.8 m/s
33%
04:00
18°
1010.9 hPa
16%
14.3°
3
Windvlaag: 5 m/s
17%
05:00
18°
1010.6 hPa
16%
13.8°
3
Windvlaag: 5.3 m/s
15%
06:00
19°
1010.3 hPa
14%
13.6°
3
Windvlaag: 4.5 m/s
1%
07:00
20°
1010.0 hPa
15%
13.8°
3
Windvlaag: 5.7 m/s
28%
08:00
22°
1009.6 hPa
15%
14.0°
3
Windvlaag: 5.7 m/s
11%
09:00
23°
1009.3 hPa
14%
14.6°
4
Windvlaag: 6 m/s
15%
10:00
24°
1009.1 hPa
14%
14.8°
4
Windvlaag: 6.5 m/s
13%
11:00
25°
1008.8 hPa
14%
15.0°
4
Windvlaag: 6.9 m/s
28%
12:00
26°
1008.7 hPa
21%
15.8°
4
Windvlaag: 7.3 m/s
63%
13:00
26°
1008.5 hPa
31%
16.9°
5
Windvlaag: 7.6 m/s
79%
14:00
27°
1008.1 hPa
24%
17.2°
5
Windvlaag: 8 m/s
68%
15:00
27°
1007.8 hPa
24%
17.4°
5
Windvlaag: 7.8 m/s
74%
16:00
26°
1007.4 hPa
84%
18.0°
5
Windvlaag: 7.4 m/s
86%
17:00
27°
1006.9 hPa
92%
18.4°
5
Windvlaag: 8.4 m/s
37%
18:00
26°
1006.7 hPa
48%
18.4°
5
Windvlaag: 8.2 m/s
40%
19:00
26°
1006.5 hPa
25%
17.8°
4
Windvlaag: 7.9 m/s
30%
20:00
25°
1006.3 hPa
21%
17.6°
5
Windvlaag: 6.9 m/s
44%
21:00
24°
1006.3 hPa
22%
17.7°
5
Windvlaag: 8 m/s
43%
22:00
23°
1006.8 hPa
21%
17.2°
5
Windvlaag: 7.9 m/s
58%
23:00
21°
1006.7 hPa
21%
17.4°
3
Windvlaag: 6.7 m/s
34%
 03:20     22:57    Daglengte: 19:37 Zaterdag 22 Jun
00:00
21°
1006.8 hPa
21%
15.9°
2
Windvlaag: 4.7 m/s
12%
01:00
21°
1007.0 hPa 2.4 mm
96%
16.7°
3
Windvlaag: 4.1 m/s
25%
02:00
20°
1007.4 hPa
100%
15.8°
4
Windvlaag: 6 m/s
25%
03:00
19°
1007.7 hPa
100%
14.8°
4
Windvlaag: 6.1 m/s
4%
04:00
18°
1008.2 hPa
91%
16.8°
3
Windvlaag: 1.4 m/s
30%
05:00
18°
1008.3 hPa
96%
15.8°
3
Windvlaag: 1.4 m/s
54%
06:00
18°
1008.5 hPa
99%
14.4°
3
Windvlaag: 1.2 m/s
62%
07:00
18°
1008.8 hPa
96%
13.4°
3
Windvlaag: 2.4 m/s
68%
08:00
18°
1008.9 hPa
39%
12.1°
4
Windvlaag: 2.3 m/s
52%
09:00
19°
1008.9 hPa
25%
10.5°
4
Windvlaag: 2.4 m/s
20%
10:00
19°
1008.6 hPa
21%
10.3°
4
Windvlaag: 9.6 m/s
17%
11:00
19°
1008.8 hPa
21%
9.9°
4
Windvlaag: 10.5 m/s
18%
12:00
20°
1008.9 hPa
21%
9.3°
5
Windvlaag: 10.4 m/s
18%
13:00
20°
1009.0 hPa
21%
8.8°
6
Windvlaag: 11 m/s
7%
14:00
20°
1009.0 hPa
24%
8.5°
6
Windvlaag: 11.3 m/s
21%
Temp/Neerslag /Baro Onweer/Dauwpunt
    Temp Baro Neerslag Dauwpunt Wind Bewolking  
 03:19     22:56    Daglengte: 19:37 Vandaag
15:00
23°
1010.8 hPa   13.0°
7
25%
18:00
20°
1010.7 hPa 2.2 mm 15.5°
4
41%
21:00
20°
1010.7 hPa 2.2 mm 16.2°
4
62%
 03:19     22:56    Daglengte: 19:37 Morgen
00:00
18°
1011.1 hPa   16.3°
3
67%
03:00
17°
1011.8 hPa   15.5°
3
57%
06:00
17°
1012.3 hPa   15.4°
2
33%
09:00
19°
1012.6 hPa   14.6°
2
29%
12:00
21°
1012.8 hPa   14.4°
2
64%
15:00
23°
1012.6 hPa   13.8°
3
30%
18:00
24°
1011.6 hPa   13.0°
2
17%
21:00
22°
1011.1 hPa   13.6°
3
15%
 03:19     22:56    Daglengte: 19:37 Vrijdag 21 Jun
00:00
19°
1011.2 hPa   14.5°
3
17%
03:00
18°
1011.0 hPa   14.6°
3
33%
06:00
19°
1010.3 hPa   13.6°
3
1%
09:00
23°
1009.3 hPa   14.6°
4
15%
12:00
26°
1008.7 hPa   15.8°
4
63%
15:00
27°
1007.8 hPa   17.4°
5
74%
18:00
26°
1006.7 hPa   18.4°
5
40%
21:00
24°
1006.3 hPa   17.7°
5
43%
 03:20     22:57    Daglengte: 19:37 Zaterdag 22 Jun
00:00
21°
1006.8 hPa   15.9°
2
12%
03:00
19°
1007.7 hPa 2.4 mm 14.8°
4
4%
06:00
18°
1008.5 hPa   14.4°
3
62%
09:00
19°
1008.9 hPa   10.5°
4
20%
12:00
20°
1008.9 hPa   9.3°
5
18%
15:00
20°
1009.1 hPa   7.9°
7
11%
18:00
18°
1010.5 hPa 3.9 mm 7.2°
7
17%
21:00
17°
1011.3 hPa 3.9 mm 7.2°
6
17%
 03:20     22:57    Daglengte: 19:37 Zondag 23 Jun
00:00
15°
1013.3 hPa 3.9 mm 8.3°
6
8%
03:00
13°
1015.3 hPa 3.9 mm 8.8°
5
0%
06:00
15°
1016.3 hPa 3.9 mm 8.1°
5
1%
09:00
16°
1017.3 hPa 3.9 mm 7.1°
5
1%
12:00
18°
1017.7 hPa 3.9 mm 6.0°
5
10%
15:00
19°
1018.1 hPa 3.9 mm 4.3°
5
18%
18:00
18°
1018.0 hPa 3.9 mm 6.3°
4
18%
21:00
17°
1017.9 hPa 3.9 mm 7.8°
3
18%
 03:21     22:57    Daglengte: 19:36 Maandag 24 Jun
00:00
15°
1018.8 hPa 3.9 mm 8.6°
3
10%
03:00
13°
1019.6 hPa 3.9 mm 8.7°
4
3%
06:00
14°
1019.8 hPa 3.9 mm 8.2°
4
21%
09:00
16°
1020.0 hPa 3.9 mm 7.5°
3
40%
12:00
16°
1020.5 hPa 3.9 mm 8.2°
4
48%
15:00
16°
1020.9 hPa 3.9 mm 8.8°
4
56%
18:00
15°
1021.6 hPa 4.0 mm 8.7°
5
64%
21:00
13°
1022.3 hPa 4.0 mm 8.4°
6
73%
 03:21     22:56    Daglengte: 19:35 Dinsdag 25 Jun
00:00
12°
1024.2 hPa 4.5 mm 8.5°
5
47%
03:00
11°
1026.2 hPa 4.5 mm 8.1°
3
21%
06:00
12°
1027.1 hPa 4.5 mm 7.4°
3
17%
09:00
14°
1028.1 hPa 4.6 mm 6.5°
2
14%
12:00
15°
1028.2 hPa 4.9 mm 6.4°
3
44%
15:00
17°
1028.2 hPa 4.9 mm 6.0°
4
74%
18:00
16°
1027.9 hPa 4.9 mm 7.4°
2
51%
21:00
16°
1027.6 hPa 4.9 mm 8.6°
1
27%
 03:22     22:56    Daglengte: 19:34 Woensdag 26 Jun
00:00
15°
1027.6 hPa 4.9 mm 9.5°
1
58%
03:00
13°
1027.6 hPa 4.9 mm 10.2°
2
89%
06:00
14°
1027.0 hPa 4.9 mm 9.0°
2
65%
09:00
16°
1026.4 hPa 5.0 mm 7.2°
3
42%
12:00
18°
1024.4 hPa   6.5°
3
23%
15:00
21°
1022.4 hPa 13.4 mm 4.6°
3
4%
21:00
19°
1018.7 hPa 14.9 mm 8.6°
3
92%
 03:23     22:56    Daglengte: 19:33 Donderdag 27 Jun
03:00
14°
1016.0 hPa 14.9 mm 11.3°
2
92%
09:00
15°
1011.8 hPa 14.9 mm 9.4°
3
72%
15:00
18°
1007.1 hPa 14.9 mm 8.4°
4
91%
21:00
15°
1002.9 hPa 14.9 mm 10.7°
3
92%
 03:24     22:55    Daglengte: 19:31 Vrijdag 28 Jun
03:00
13°
1000.7 hPa 14.9 mm 8.7°
4
88%
09:00
14°
1000.3 hPa 14.9 mm 7.2°
6
32%
15:00
15°
1002.8 hPa 18.3 mm 8.6°
7
82%
21:00
14°
1005.9 hPa 20.9 mm 8.6°
6
49%
 03:25     22:54    Daglengte: 19:29 Zaterdag 29 Jun
03:00
12°
1007.8 hPa 21.1 mm 7.9°
3
4%
09:00
14°
1008.1 hPa 0.3 mm 7.6°
2
42%
15:00
18°
1007.2 hPa 0.6 mm 7.4°
2
43%
21:00
16°
1007.0 hPa 0.3 mm 9.5°
1
45%
 03:26     22:54    Daglengte: 19:28 Zondag 30 Jun
03:00
10°
1007.8 hPa 0.3 mm 6.6°
0
40%
09:00
15°
1007.8 hPa 0.4 mm 8.4°
1
39%
15:00
19°
1006.8 hPa 1.2 mm 8.1°
1
41%
21:00
16°
1006.2 hPa 0.7 mm 9.5°
1
43%
 03:27     22:53    Daglengte: 19:26 Maandag 01 Jul
03:00
11°
1007.0 hPa 0.5 mm 7.7°
1
40%
09:00
15°
1007.0 hPa 0.6 mm 9.4°
1
35%
15:00
19°
1006.5 hPa 1.1 mm 9.8°
1
45%
21:00
16°
1006.5 hPa 0.5 mm 10.4°
0
51%
 03:28     22:52    Daglengte: 19:24 Dinsdag 02 Jul
03:00
11°
1007.9 hPa 0.3 mm 7.8°
1
41%
09:00
16°
1008.1 hPa 0.2 mm 9.4°
1
34%
15:00
21°
1007.3 hPa 0.3 mm 8.8°
1
41%
21:00
17°
1007.0 hPa 0.8 mm 10.9°
0
49%
 03:30     22:51    Daglengte: 19:21 Woensdag 03 Jul
03:00
12°
1008.1 hPa 0.2 mm 8.7°
0
33%
09:00
16°
1008.0 hPa 0.5 mm 10.3°
0
35%
15:00
20°
1007.1 hPa 0.9 mm 10.5°
1
39%
21:00
17°
1007.1 hPa 0.5 mm 11.1°
1
52%
 03:31     22:50    Daglengte: 19:19 Donderdag 04 Jul
03:00
12°
1008.7 hPa 0.1 mm 9.1°
0
39%
09:00
16°
1009.2 hPa 0.4 mm 10.4°
0
39%
  CAPE Lifted Index Hail Supercell Tornado SRH 3km CL BTM PRES CL TOP PRES Swiss DWD icon SMHI TS
 03:19     22:56    Daglengte: 19:37 Vandaag
15:00 480 J/kg -2.1 K 0 % 0 % 0 % 0 m²/s² 0 0 -0.78 2
16:00 707 J/kg -2.9 K 0 % 0 % 0 % 0 m²/s² 0 0 -1.4 2
17:00 860 J/kg -3.5 K 0 % 0 % 0 % 0 m²/s² 0 0 -2 2
18:00 714 J/kg -3.0 K 0 % 0 % 0 % 0 m²/s² 0 0 -1.38 80
19:00 875 J/kg -3.5 K 0 % 0 % 0 % 0 m²/s² 0 0 -1.64 1
20:00 901 J/kg -3.5 K 0 % 0 % 0 % 0 m²/s² 0 0 -1.88 0
21:00 998 J/kg -3.7 K 0 % 0 % 0 % 0 m²/s² 0 0 -2.56 1
22:00 948 J/kg -3.3 K 0 % 0 % 0 % 0 m²/s² 0 0 -1.44 1
23:00 865 J/kg -3.2 K 0 % 0 % 0 % 0 m²/s² 0 0 -2.6 0
 03:19     22:56    Daglengte: 19:37 Morgen
00:00 639 J/kg -2.3 K 0 % 0 % 0 % 0 m²/s² 0 0 -1.64 2
01:00 323 J/kg -0.6 K 0 % 0 % 0 % 0 m²/s² 0 0 0.69 2
02:00 97 J/kg 0.0 K 0 % 0 % 0 % 0 m²/s² 0 0 1.02 1
03:00 17 J/kg -0.2 K 0 % 0 % 0 % 0 m²/s² 0 0 0.94 2
04:00 0 J/kg -0.2 K 0 % 0 % 0 % 0 m²/s² 0 0 0.73 2
05:00 0 J/kg -0.4 K 0 % 0 % 0 % 0 m²/s² 0 0 0.29 3
06:00 4 J/kg -0.5 K 0 % 0 % 0 % 0 m²/s² 0 0 -0.32 3
07:00 15 J/kg -0.7 K 0 % 0 % 0 % 0 m²/s² 0 0 -0.31 3
08:00 0 J/kg -0.5 K 0 % 0 % 0 % 0 m²/s² 0 0 0.19 3
09:00 33 J/kg -0.4 K 0 % 0 % 0 % 0 m²/s² 0 0 0.53 1
10:00 66 J/kg -0.4 K 0 % 0 % 0 % 0 m²/s² 0 0 0.47 3
11:00 222 J/kg -1.1 K 0 % 0 % 0 % 0 m²/s² 0 0 -0.32 3
12:00 361 J/kg -1.4 K 0 % 0 % 0 % 0 m²/s² 0 0 -0.5 3
13:00 434 J/kg -1.5 K 0 % 0 % 0 % 0 m²/s² 0 0 -0.66 3
14:00 270 J/kg -0.8 K 0 % 0 % 0 % 0 m²/s² 0 0 0.19 2
15:00 183 J/kg -0.3 K 0 % 0 % 0 % 0 m²/s² 0 0 0.9 2
16:00 135 J/kg -0.2 K 0 % 0 % 0 % 0 m²/s² 0 0 1.87 2
17:00 115 J/kg -0.4 K 0 % 0 % 0 % 0 m²/s² 0 0 2.9 3
18:00 35 J/kg 0.4 K 0 % 0 % 0 % 0 m²/s² 0 0 4.9 3
19:00 1 J/kg 1.2 K 0 % 0 % 0 % 0 m²/s² 0 0 6.06 3
20:00 0 J/kg 1.9 K 0 % 0 % 0 % 0 m²/s² 0 0 6.4 3
21:00 0 J/kg 2.3 K 0 % 0 % 0 % 0 m²/s² 0 0 6.92 3
22:00 0 J/kg 2.1 K 0 % 0 % 0 % 0 m²/s² 0 0 5.97 2
23:00 0 J/kg 1.3 K 0 % 0 % 0 % 0 m²/s² 0 0 5.2 2
 03:19     22:56    Daglengte: 19:37 Vrijdag 21 Jun
00:00 0 J/kg 0.3 K 0 % 0 % 0 % 0 m²/s² 0 0 4.38 0
01:00 0 J/kg -0.6 K 0 % 0 % 0 % 0 m²/s² 0 0 2.88 0
02:00 0 J/kg -1.6 K 0 % 0 % 0 % 0 m²/s² 0 0 0.83 0
03:00 0 J/kg -1.7 K 0 % 0 % 0 % 0 m²/s² 0 0 0.64 2
04:00 0 J/kg -1.0 K 0 % 0 % 0 % 0 m²/s² 0 0 1.28 1
05:00 0 J/kg -0.4 K 0 % 0 % 0 % 0 m²/s² 0 0 0.65 1
06:00 0 J/kg -1.6 K 0 % 0 % 0 % 0 m²/s² 0 0 -0.13 2
07:00 14 J/kg -1.1 K 0 % 0 % 0 % 0 m²/s² 0 0 1.57 2
08:00 195 J/kg -1.8 K 0 % 0 % 0 % 0 m²/s² 0 0 1.26 1
09:00 403 J/kg -2.4 K 0 % 0 % 0 % 0 m²/s² 0 0 1.23 1
10:00 938 J/kg -4.0 K 0 % 0 % 0 % 0 m²/s² 0 0 -0.58 1
11:00 1377 J/kg -4.9 K 0 % 0 % 0 % 0 m²/s² 0 0 -1.45 2
12:00 1507 J/kg -4.9 K 0 % 0 % 0 % 0 m²/s² 0 0 -1.36 0
13:00 1736 J/kg -6.0 K 0 % 0 % 0 % 0 m²/s² 0 0 -2.82 2
14:00 1777 J/kg -6.1 K 0 % 0 % 0 % 0 m²/s² 0 0 -3.07 2
15:00 1764 J/kg -5.6 K 0 % 0 % 0 % 0 m²/s² 0 0 -4.04 3
16:00 1732 J/kg -6.1 K 0 % 0 % 0 % 0 m²/s² 0 0 -4.66 3
17:00 979 J/kg -3.6 K 0 % 0 % 0 % 0 m²/s² 0 0 -3.51 2
18:00 610 J/kg -1.9 K 0 % 0 % 0 % 0 m²/s² 0 0 -1.51 2
19:00 422 J/kg -1.0 K 0 % 0 % 0 % 0 m²/s² 0 0 -0.04 2
20:00 283 J/kg -0.8 K 0 % 0 % 0 % 0 m²/s² 0 0 0.76 3
21:00 367 J/kg -0.9 K 0 % 0 % 0 % 0 m²/s² 0 0 1.41 3
22:00 450 J/kg -1.2 K 0 % 0 % 0 % 0 m²/s² 0 0 2.07 3
23:00 31 J/kg -0.3 K 0 % 0 % 0 % 0 m²/s² 0 0 3.81 3
 03:20     22:57    Daglengte: 19:37 Zaterdag 22 Jun
00:00 62 J/kg -1.6 K 0 % 0 % 0 % 0 m²/s² 0 0 2.96 3
01:00 180 J/kg -0.3 K 0 % 0 % 0 % 0 m²/s² 0 0 4.11 3
02:00 0 J/kg 3.1 K 0 % 0 % 0 % 0 m²/s² 0 0 9.49 80
03:00 0 J/kg 5.6 K 0 % 0 % 0 % 0 m²/s² 0 0 12.83 80
04:00 0 J/kg 5.5 K 0 % 0 % 0 % 0 m²/s² 0 0 13.84 3
05:00 0 J/kg 6.7 K 0 % 0 % 0 % 0 m²/s² 0 0 14.41 3
06:00 0 J/kg 6.9 K 0 % 0 % 0 % 0 m²/s² 0 0 13.26 80
07:00 0 J/kg 7.0 K 0 % 0 % 0 % 0 m²/s² 0 0 12.82 3
08:00 0 J/kg 6.7 K 0 % 0 % 0 % 0 m²/s² 0 0 11.89 3
09:00 0 J/kg 6.4 K 0 % 0 % 0 % 0 m²/s² 0 0 11.86 3
10:00 10 J/kg 6.2 K 0 % 0 % 0 % 0 m²/s² 0 0 12.83 3
11:00 17 J/kg 5.8 K 0 % 0 % 0 % 0 m²/s² 0 0 12.19 3
12:00 4 J/kg 6.4 K 0 % 0 % 0 % 0 m²/s² 0 0 12.55 2
13:00 19 J/kg 6.9 K 0 % 0 % 0 % 0 m²/s² 0 0 13.17 1
14:00 65 J/kg 6.4 K 0 % 0 % 0 % 0 m²/s² 0 0 12.61 3
Temp Baro Wind Neerslag
  EWN Forecast EWN WRFDA DWD ICON FMI HIRLAM MET Norway GFS
 03:19     22:56    Daglengte: 19:37 Vandaag
15:00 23.2° 1010.8 hPa 6.5 m/s 0.0 mm 22.4° 1010.6 hPa 5.2 m/s 1.0 mm 23.6° 1011.0 hPa 5.8 m/s -1.7 mm 23.2° 1010.7 hPa 6.2 m/s 0.0 mm 24.9° 1010.6 hPa 7.5 m/s 20.4° 1010.9 hPa 6.2 m/s
18:00 20.3° 1010.7 hPa 3.6 m/s 2.2 mm 23.1° 1010.5 hPa 5.9 m/s 8.3 mm 21.8° 1011.2 hPa 4.6 m/s 0.5 mm 20.8° 1010.3 hPa 2.6 m/s 0.0 mm 19.0° 1010.7 hPa 1.1 m/s 2.3 mm 19.2° 1010.5 hPa 5.7 m/s
21:00 19.8° 1010.7 hPa 3.9 m/s 2.2 mm 20.4° 1010.2 hPa 3.5 m/s 12.4 mm 21.3° 1010.5 hPa 3.3 m/s 0.1 mm 20.9° 1009.7 hPa 3.5 m/s 0.0 mm 18.7° 1010.9 hPa 4.1 m/s 3.3 mm 17.7° 1010.6 hPa 4.6 m/s
 03:19     22:56    Daglengte: 19:37 Morgen
00:00 18.4° 1011.1 hPa 2.8 m/s 0.0 mm 17.5° 1011.1 hPa 3.8 m/s 17.7 mm 19.6° 1011.6 hPa 2.7 m/s 0.0 mm 18.6° 1010.2 hPa 3.2 m/s 0.0 mm 18.5° 1011.1 hPa 2.8 m/s 0.0 mm 15.3° 1011.9 hPa 3.9 m/s
03:00 17.2° 1011.8 hPa 2.8 m/s 0.0 mm 16.1° 1011.6 hPa 2.6 m/s 18.0 mm 18.4° 1012.0 hPa 2.3 m/s 0.0 mm 16.7° 1011.0 hPa 2.5 m/s 0.0 mm 17.4° 1011.8 hPa 4.0 m/s 0.0 mm 13.4° 1012.8 hPa 3.3 m/s
06:00 17.4° 1012.3 hPa 2.4 m/s 0.0 mm 17.3° 1012.0 hPa 1.8 m/s 18.0 mm 17.7° 1012.3 hPa 2.3 m/s 0.0 mm 17.0° 1011.3 hPa 1.6 m/s 0.0 mm 17.5° 1012.4 hPa 2.8 m/s 0.0 mm 13.9° 1013.0 hPa 2.6 m/s
09:00 19.3° 1012.6 hPa 1.8 m/s 0.0 mm 20.0° 1012.3 hPa 1.6 m/s 18.0 mm 19.6° 1012.7 hPa 1.3 m/s 0.0 mm 17.8° 1011.4 hPa 1.3 m/s 0.0 mm 20.4° 1012.7 hPa 2.0 m/s 0.0 mm 15.6° 1013.1 hPa 1.9 m/s
12:00 21.2° 1012.8 hPa 2.4 m/s 0.0 mm 21.9° 1012.1 hPa 2.5 m/s 18.0 mm 21.8° 1013.0 hPa 2.3 m/s 0.0 mm 20.0° 1011.4 hPa 2.5 m/s 0.0 mm 21.8° 1013.0 hPa 2.6 m/s 0.0 mm 16.4° 1012.9 hPa 2.5 m/s
15:00 23.3° 1012.6 hPa 2.6 m/s 0.0 mm 23.8° 1012.0 hPa 4.5 m/s 18.0 mm 22.6° 1013.0 hPa 2.1 m/s 0.1 mm 23.9° 1011.5 hPa 3.9 m/s 0.0 mm 24.2° 1012.8 hPa 2.7 m/s 0.0 mm 19.7° 1012.1 hPa 2.8 m/s
18:00 24.0° 1011.6 hPa 1.8 m/s 0.0 mm 24.0° 1011.4 hPa 4.4 m/s 18.0 mm 23.2° 1012.3 hPa 1.4 m/s 0.0 mm 24.8° 1010.6 hPa 0.9 m/s 0.0 mm 25.4° 1011.6 hPa 1.8 m/s 0.0 mm 20.4° 1011.3 hPa 2.8 m/s
21:00 22.3° 1011.1 hPa 3.4 m/s 0.0 mm 21.1° 1010.9 hPa 2.9 m/s 18.0 mm 22.4° 1012.4 hPa 2.1 m/s 0.0 mm 22.3° 1010.0 hPa 1.4 m/s 0.0 mm 24.4° 1011.0 hPa 4.2 m/s 0.0 mm 18.2° 1010.9 hPa 2.5 m/s
 03:19     22:56    Daglengte: 19:37 Vrijdag 21 Jun
00:00 19.3° 1011.2 hPa 3.5 m/s 0.0 mm 16.4° 1011.3 hPa 3.4 m/s 18.0 mm 20.0° 1012.1 hPa 2.5 m/s 0.0 mm 18.6° 1010.1 hPa 1.8 m/s 0.0 mm 21.3° 1011.2 hPa 3.9 m/s 0.0 mm 14.9° 1011.3 hPa 2.9 m/s
03:00 18.1° 1011.0 hPa 2.9 m/s 0.0 mm 15.1° 1011.2 hPa 2.8 m/s 18.0 mm 18.7° 1012.2 hPa 2.1 m/s 0.0 mm 17.4° 1010.1 hPa 1.9 m/s 0.0 mm 20.1° 1010.9 hPa 3.3 m/s 0.0 mm 13.6° 1010.9 hPa 2.8 m/s
06:00 19.3° 1010.3 hPa 2.9 m/s 0.0 mm 18.8° 1010.4 hPa 3.6 m/s 18.0 mm 19.5° 1012.1 hPa 1.9 m/s 0.0 mm 19.0° 1010.0 hPa 2.2 m/s 0.0 mm 21.0° 1009.8 hPa 3.5 m/s 0.0 mm 14.9° 1010.4 hPa 2.7 m/s
09:00 22.6° 1009.3 hPa 3.7 m/s 0.0 mm 22.5° 1009.0 hPa 4.9 m/s 18.0 mm 22.6° 1011.1 hPa 3.1 m/s 0.0 mm 24.4° 1009.0 hPa 3.3 m/s 0.0 mm 23.2° 1009.0 hPa 3.7 m/s 0.0 mm 18.1° 1009.3 hPa 3.5 m/s
12:00 25.7° 1008.7 hPa 4.3 m/s 0.0 mm 25.3° 1008.4 hPa 4.8 m/s 18.1 mm 26.5° 1010.7 hPa 3.6 m/s 0.0 mm 27.2° 1008.2 hPa 4.4 m/s 0.0 mm 20.1° 1008.6 hPa 4.0 m/s
15:00 27.1° 1007.8 hPa 4.7 m/s 0.0 mm 23.7° 1006.5 hPa 4.1 m/s 19.1 mm 28.5° 1009.2 hPa 4.8 m/s 0.0 mm 28.5° 1007.5 hPa 5.7 m/s 0.0 mm 22.3° 1007.5 hPa 4.9 m/s
18:00 26.3° 1006.7 hPa 5.1 m/s 0.0 mm 21.0° 1006.3 hPa 5.5 m/s 28.5 mm 28.1° 1008.6 hPa 4.2 m/s 0.0 mm 27.6° 1006.3 hPa 5.5 m/s 0.0 mm 22.3° 1007.2 hPa 6.1 m/s
21:00 24.2° 1006.3 hPa 5.0 m/s 0.0 mm 20.4° 1005.4 hPa 2.8 m/s 34.7 mm 26.0° 1008.3 hPa 3.0 m/s 0.0 mm 24.9° 1005.9 hPa 6.6 m/s 0.0 mm 19.6° 1007.3 hPa 5.4 m/s
 03:20     22:57    Daglengte: 19:37 Zaterdag 22 Jun
00:00 21.1° 1006.8 hPa 2.0 m/s 0.0 mm 17.4° 1005.5 hPa 4.1 m/s 34.7 mm 23.1° 1008.1 hPa 1.4 m/s 0.0 mm 21.5° 1006.6 hPa 1.4 m/s 0.0 mm 16.2° 1008.6 hPa 3.6 m/s
03:00 19.3° 1007.7 hPa 4.1 m/s 2.4 mm 14.2° 1006.4 hPa 3.4 m/s 34.7 mm 19.9° 1008.1 hPa 1.3 m/s 1.7 mm 20.2° 1007.5 hPa 4.5 m/s 0.0 mm 13.3° 1009.8 hPa 3.3 m/s
06:00 17.6° 1008.5 hPa 3.4 m/s 0.0 mm 15.0° 1007.3 hPa 4.5 m/s 34.7 mm 19.4° 1008.2 hPa 3.1 m/s 0.8 mm 17.7° 1008.5 hPa 3.4 m/s 0.5 mm 13.0° 1010.4 hPa 4.2 m/s
09:00 18.9° 1008.9 hPa 3.5 m/s 0.0 mm 16.7° 1008.1 hPa 5.8 m/s 34.7 mm 19.6° 1008.1 hPa 3.2 m/s 0.1 mm 19.2° 1009.0 hPa 3.2 m/s 0.0 mm 15.6° 1010.9 hPa 6.0 m/s
12:00 19.7° 1008.9 hPa 5.0 m/s 0.0 mm 19.3° 1009.0 hPa 7.3 m/s 34.7 mm 21.4° 1007.9 hPa 3.4 m/s 0.0 mm 19.4° 1009.1 hPa 5.1 m/s 17.3° 1011.3 hPa 6.7 m/s
15:00 20.1° 1009.1 hPa 7.0 m/s 0.0 mm 19.6° 1010.2 hPa 8.3 m/s 34.7 mm 22.3° 1007.7 hPa 6.4 m/s 0.0 mm 19.7° 1009.2 hPa 6.9 m/s 18.2° 1011.2 hPa 6.9 m/s
18:00 17.9° 1010.5 hPa 6.6 m/s 3.9 mm 18.0° 1010.4 hPa 6.5 m/s 17.5° 1012.1 hPa 7.6 m/s 3.9 mm
21:00 17.0° 1011.3 hPa 6.3 m/s 3.9 mm 17.1° 1011.0 hPa 6.3 m/s 15.4° 1014.4 hPa 5.8 m/s 3.9 mm
 03:20     22:57    Daglengte: 19:37 Zondag 23 Jun
00:00 15.1° 1013.3 hPa 5.7 m/s 3.9 mm 15.3° 1013.0 hPa 5.8 m/s 12.6° 1017.0 hPa 4.6 m/s 3.9 mm
03:00 13.3° 1015.3 hPa 5.1 m/s 3.9 mm 13.5° 1015.0 hPa 5.2 m/s 11.0° 1019.2 hPa 4.4 m/s 3.9 mm
06:00 14.5° 1016.3 hPa 5.1 m/s 3.9 mm 14.8° 1016.0 hPa 5.2 m/s 11.2° 1020.6 hPa 3.9 m/s 3.9 mm
09:00 15.9° 1017.3 hPa 5.2 m/s 3.9 mm 16.1° 1016.9 hPa 5.3 m/s 14.2° 1021.4 hPa 3.6 m/s 3.9 mm
12:00 17.7° 1017.7 hPa 5.2 m/s 3.9 mm 17.8° 1017.3 hPa 5.3 m/s 16.4° 1021.7 hPa 3.5 m/s 3.9 mm
15:00 19.3° 1018.1 hPa 5.2 m/s 3.9 mm 19.5° 1017.8 hPa 5.4 m/s 17.2° 1021.5 hPa 3.1 m/s 3.9 mm
18:00 18.4° 1018.0 hPa 4.0 m/s 3.9 mm 18.4° 1017.7 hPa 4.2 m/s 17.9° 1020.7 hPa 2.0 m/s 3.9 mm
21:00 17.3° 1017.9 hPa 3.0 m/s 3.9 mm 17.4° 1017.6 hPa 3.0 m/s 16.2° 1020.9 hPa 3.3 m/s 3.9 mm
 03:21     22:57    Daglengte: 19:36 Maandag 24 Jun
00:00 15.3° 1018.8 hPa 3.3 m/s 3.9 mm 15.4° 1018.5 hPa 3.3 m/s 14.3° 1021.8 hPa 3.7 m/s 3.9 mm
03:00 13.3° 1019.6 hPa 3.6 m/s 3.9 mm 13.4° 1019.4 hPa 3.6 m/s 12.1° 1022.1 hPa 3.0 m/s 3.9 mm
06:00 14.4° 1019.8 hPa 3.5 m/s 3.9 mm 14.6° 1019.6 hPa 3.5 m/s 12.4° 1021.9 hPa 3.3 m/s 3.9 mm
09:00 15.7° 1020.0 hPa 3.5 m/s 3.9 mm 15.8° 1019.9 hPa 3.5 m/s 14.3° 1021.3 hPa 3.3 m/s 3.9 mm
12:00 15.8° 1020.5 hPa 3.8 m/s 3.9 mm 15.8° 1020.5 hPa 3.9 m/s 16.1° 1020.7 hPa 3.3 m/s 3.9 mm
15:00 16.0° 1020.9 hPa 4.2 m/s 3.9 mm 15.8° 1021.1 hPa 4.3 m/s 17.9° 1019.2 hPa 3.5 m/s 3.9 mm
18:00 14.9° 1021.6 hPa 5.1 m/s 4.0 mm 14.5° 1021.9 hPa 5.2 m/s 18.9° 1018.0 hPa 4.1 m/s 4.0 mm
21:00 13.5° 1022.3 hPa 5.8 m/s 4.0 mm 13.2° 1022.7 hPa 6.0 m/s 16.3° 1017.8 hPa 3.8 m/s 4.0 mm
 03:21     22:56    Daglengte: 19:35 Dinsdag 25 Jun
00:00 12.3° 1024.2 hPa 4.6 m/s 4.5 mm 12.4° 1024.8 hPa 4.7 m/s 11.6° 1018.7 hPa 4.2 m/s 4.5 mm
03:00 11.4° 1026.2 hPa 3.3 m/s 4.5 mm 11.6° 1026.8 hPa 3.3 m/s 9.2° 1019.2 hPa 3.8 m/s 4.5 mm
06:00 12.5° 1027.1 hPa 2.9 m/s 4.5 mm 12.8° 1027.8 hPa 2.8 m/s 9.2° 1019.3 hPa 4.9 m/s 4.5 mm
09:00 13.7° 1028.1 hPa 2.4 m/s 4.6 mm 13.9° 1028.9 hPa 2.2 m/s 11.6° 1019.5 hPa 4.8 m/s 4.6 mm
12:00 15.2° 1028.2 hPa 3.3 m/s 4.9 mm 15.2° 1028.9 hPa 3.1 m/s 14.3° 1020.2 hPa 5.0 m/s 4.9 mm
15:00 16.6° 1028.2 hPa 4.2 m/s 4.9 mm 16.6° 1028.9 hPa 4.1 m/s 16.0° 1020.5 hPa 5.8 m/s 4.9 mm
18:00 16.4° 1027.9 hPa 2.5 m/s 4.9 mm 16.4° 1028.5 hPa 2.3 m/s 16.1° 1021.1 hPa 3.9 m/s 4.9 mm
21:00 16.1° 1027.6 hPa 0.7 m/s 4.9 mm 16.2° 1028.1 hPa 0.6 m/s 14.5° 1021.6 hPa 2.3 m/s 4.9 mm
 03:22     22:56    Daglengte: 19:34 Woensdag 26 Jun
00:00 14.6° 1027.6 hPa 1.2 m/s 4.9 mm 14.8° 1028.0 hPa 1.1 m/s 12.0° 1022.6 hPa 2.1 m/s 4.9 mm
03:00 13.3° 1027.6 hPa 1.7 m/s 4.9 mm 13.5° 1028.0 hPa 1.7 m/s 11.1° 1022.8 hPa 1.8 m/s 4.9 mm
06:00 14.5° 1027.0 hPa 2.2 m/s 4.9 mm 14.7° 1027.4 hPa 2.2 m/s 12.0° 1022.5 hPa 1.4 m/s 4.9 mm
09:00 15.8° 1026.4 hPa 2.7 m/s 5.0 mm 15.9° 1026.8 hPa 2.8 m/s 14.3° 1021.9 hPa 1.6 m/s 5.0 mm
12:00 18.2° 1024.4 hPa 3.1 m/s 6.1 mm 18.4° 1024.7 hPa 3.1 m/s 15.4° 1020.9 hPa 2.8 m/s 6.1 mm
15:00 20.6° 1022.4 hPa 3.3 m/s 7.3 mm 20.9° 1022.6 hPa 3.4 m/s 17.2° 1019.7 hPa 2.5 m/s 7.3 mm
21:00 18.9° 1018.7 hPa 3.3 m/s 7.4 mm 19.2° 1018.8 hPa 3.4 m/s 16.1° 1017.8 hPa 2.0 m/s 7.4 mm
 03:23     22:56    Daglengte: 19:33 Donderdag 27 Jun
03:00 14.1° 1016.0 hPa 2.1 m/s 7.4 mm 14.4° 1015.8 hPa 1.9 m/s 10.8° 1017.6 hPa 4.1 m/s 7.4 mm
09:00 15.1° 1011.8 hPa 3.4 m/s 7.4 mm 15.2° 1011.3 hPa 3.4 m/s 13.8° 1016.7 hPa 3.6 m/s 7.4 mm
15:00 18.0° 1007.1 hPa 3.7 m/s 7.4 mm 18.1° 1006.3 hPa 3.7 m/s 17.0° 1015.4 hPa 3.9 m/s 7.4 mm
21:00 15.1° 1002.9 hPa 2.9 m/s 7.4 mm 15.2° 1001.9 hPa 3.1 m/s 14.4° 1014.0 hPa 1.3 m/s 7.4 mm
 03:24     22:55    Daglengte: 19:31 Vrijdag 28 Jun
03:00 13.2° 1000.7 hPa 4.4 m/s 7.4 mm 13.3° 999.5 hPa 4.6 m/s 12.5° 1013.5 hPa 2.2 m/s 7.4 mm
09:00 13.6° 1000.3 hPa 5.9 m/s 7.5 mm 13.8° 999.3 hPa 6.2 m/s 11.9° 1011.1 hPa 2.6 m/s 7.5 mm
15:00 14.8° 1002.8 hPa 7.4 m/s 10.0 mm 15.2° 1002.2 hPa 7.9 m/s 10.8° 1009.9 hPa 1.9 m/s 10.0 mm
21:00 14.0° 1005.9 hPa 5.6 m/s 10.5 mm 14.1° 1005.6 hPa 5.8 m/s 12.8° 1008.7 hPa 3.8 m/s 10.5 mm
 03:25     22:54    Daglengte: 19:29 Zaterdag 29 Jun
03:00 11.8° 1007.8 hPa 3.4 m/s 10.6 mm 12.0° 1007.6 hPa 3.4 m/s 9.4° 1010.0 hPa 3.7 m/s 10.6 mm
09:00 14.2° 1008.1 hPa 1.9 m/s 0.3 mm
15:00 18.3° 1007.2 hPa 1.7 m/s 0.6 mm
21:00 15.5° 1007.0 hPa 0.7 m/s 0.3 mm
 03:26     22:54    Daglengte: 19:28 Zondag 30 Jun
03:00 10.1° 1007.8 hPa 0.3 m/s 0.3 mm
09:00 14.8° 1007.8 hPa 0.7 m/s 0.4 mm
15:00 19.0° 1006.8 hPa 0.9 m/s 1.2 mm
21:00 16.0° 1006.2 hPa 0.6 m/s 0.7 mm
 03:27     22:53    Daglengte: 19:26 Maandag 01 Jul
03:00 10.9° 1007.0 hPa 0.5 m/s 0.5 mm
09:00 14.7° 1007.0 hPa 0.6 m/s 0.6 mm
15:00 19.0° 1006.5 hPa 0.7 m/s 1.1 mm
21:00 16.0° 1006.5 hPa 0.4 m/s 0.5 mm
 03:28     22:52    Daglengte: 19:24 Dinsdag 02 Jul
03:00 10.7° 1007.9 hPa 0.9 m/s 0.3 mm
09:00 15.6° 1008.1 hPa 0.8 m/s 0.2 mm
15:00 20.5° 1007.3 hPa 1.0 m/s 0.3 mm
21:00 17.2° 1007.0 hPa 0.3 m/s 0.8 mm
 03:30     22:51    Daglengte: 19:21 Woensdag 03 Jul
03:00 11.9° 1008.1 hPa 0.1 m/s 0.2 mm
09:00 15.9° 1008.0 hPa 0.4 m/s 0.5 mm
15:00 20.1° 1007.1 hPa 0.6 m/s 0.9 mm
21:00 17.4° 1007.1 hPa 0.8 m/s 0.5 mm
 03:31     22:50    Daglengte: 19:19 Donderdag 04 Jul
03:00 12.0° 1008.7 hPa 0.4 m/s 0.1 mm
09:00 16.3° 1009.2 hPa 0.1 m/s 0.4 mm
FMI Hirlam - 7.5 km EWN WRFDA - 12 km DWD ICON - 7 km GFS - 25 km Basiskaart






























































Updatetijd (Europe/Amsterdam) Resolutie Lengte Stap
FMI Hirlam 13:00, 19:00, 01:00, 07:00 7.5 km 49h 1h
EWN WRFDA 10:15, 16:15, 22:15, 04:15 12 km 73h 1h
DWD ICON 11:45, 17:45, 23:45, 05:45 7 km 75h 1h
GFS 08:45, 14:45, 20:45, 02:45 25 km 237h 3h
30+ mm
25-30 mm
20-25 mm
15-20 mm
10-15 mm
6-10 mm
4-6 mm
2-4 mm
1-2 mm
0.5-1 mm
0.2-0.5 mm
0.1-0.2 mm
30+ mm
25-30 mm
20-25 mm
15-20 mm
10-15 mm
6-10 mm
4-6 mm
2-4 mm
1-2 mm
0.5-1 mm
0.2-0.5 mm
0.1-0.2 mm
Sneeuwval
Natte sneeuw
Hagel
Vorst
30+ mm
25-30 mm
20-25 mm
15-20 mm
10-15 mm
6-10 mm
4-6 mm
2-4 mm
1-2 mm
0.5-1 mm
0.2-0.5 mm
0.1-0.2 mm
Sneeuwval
Natte sneeuw
Hagel
Vorst
Onweer
50 mm
40 mm
30 mm
26 mm
22 mm
18 mm
14 mm
10 mm
9 mm
8 mm
7 mm
6 mm
5 mm
4.5 mm
4 mm
3.5 mm
3 mm
2.5 mm
2 mm
1.5 mm
1 mm
0.8 mm
0.6 mm
0.4 mm
0.2 mm
0.05 mm
35°
30°
25°
20°
15°
10°
-5°
-10°
-15°
-20°
-25°
-30°
-35°
33> m/s
29 m/s
25 m/s
21 m/s
17 m/s
14 m/s
11 m/s
8 m/s
5 m/s
3 m/s
0 m/s
2600 J/kg
2400 J/kg
2200 J/kg
2000 J/kg
1800 J/kg
1600 J/kg
1400 J/kg
1200 J/kg
1000 J/kg
800 J/kg
600 J/kg
400 J/kg
200 J/kg
70 dBZ
65 dBZ
60 dBZ
55 dBZ
50 dBZ
45 dBZ
40 dBZ
35 dBZ
30 dBZ
25 dBZ
20 dBZ
15 dBZ
10 dBZ
5 dBZ
-1 K
-2 K
-3 K
-4 K
-5 K
-6 K
-7 K
-8 K
-9 K
950 m²/s²
900 m²/s²
850 m²/s²
800 m²/s²
750 m²/s²
700 m²/s²
650 m²/s²
600 m²/s²
550 m²/s²
500 m²/s²
450 m²/s²
400 m²/s²
350 m²/s²
300 m²/s²
250 m²/s²
200 m²/s²
150 m²/s²
100 m²/s²
46 m/s
44 m/s
42 m/s
40 m/s
38 m/s
36 m/s
34 m/s
32 m/s
30 m/s
28 m/s
26 m/s
24 m/s
22 m/s
20 m/s
16 m/s
12 m/s
8 m/s
4 m/s
30 m/s
28 m/s
26 m/s
24 m/s
22 m/s
20 m/s
18 m/s
16 m/s
14 m/s
12 m/s
10 m/s
8 m/s
6 m/s
4 m/s
2 m/s
3.0
2.8
2.6
2.4
2.2
2.0
1.8
1.6
1.4
1.2
1.0
0.8
0.6
0.4
0.2
15
14
13
12
11
10
9
8
7
6
5
4
3
2
1
90%
80%
70%
60%
50%
40%
30%
20%
10%
42
40
38
36
34
32
30
28
26
24
22
20
18
16
14
12
90+ cm
80-90 cm
70-80 cm
60-70 cm
50-60 cm
40-50 cm
30-40 cm
20-30 cm
10-20 cm
1-10 cm
Sneeuwval
Natte sneeuw
Regen
>120 mm
115 mm
110 mm
105 mm
100 mm
95 mm
90 mm
85 mm
80 mm
75 mm
70 mm
65 mm
60 mm
55 mm
50 mm
45 mm
45 mm
40 mm
35 mm
30 mm
25 mm
20 mm
15 mm
10 mm
5 mm
0.1 mm
960 hPa
880 hPa
800 hPa
720 hPa
640 hPa
560 hPa
584 gpdm
568 gpdm
552 gpdm
536 gpdm
520 gpdm
504 gpdm
488 gpdm
Extreem zwaar Noodweer Kans op onweer
15% 15% 5% 50% 15%

Dag




Kaart






35°
30°
25°
20°
15°